Weather in Florida City

United States     25°27′05″N   80°28′56″W
temp.,
°C
wind,
m/s
gust,
m/s
humid.,
%
clouds,
%
prec.,
mm/h
press.,
hPa
HPBL,
m
7 may, fri
fri723:00+26nne11770 5.8 101719
02:00+24wsw22820 5.8 101617
05:00+23wnw23875 0.0 101561
08:00+25nw24801 0.0 1016233
11:00+30wnw34505 0.4 10171499
14:00+34w353485 0.4 10152815
17:00+33w98341 0.0 10132123
20:00+27w475613 0.2 1015314
8 may, sat
sat823:00+24w36570 1.3 1016171
02:00+23nnw35590 1.3 1016107
05:00+23nne35801 0.0 1015113
08:00+26ene467021 0.1 1017669
11:00+27ene6661100 0.3 10181360
14:00+28ene765848 1.1 10181272
17:00+27ene88599 0.6 10171153
20:00+25e696833 0.6 1018774
9 may, sun
sun923:00+25e586740 0.0 1019641
02:00+24e587150 0.1 1019493
05:00+24e597453 0.3 1018530
08:00+25e68711 0.6 1020810
11:00+28ese775752 0.6 10201436
14:00+29ese775634 2.3 10191553
17:00+29ese665829 0.9 10181463
20:00+26e47710 1.1 1019509
10 may, mon
mon1023:00+25e48770 0.1 1019363
02:00+25ese38771 0.1 1018264
05:00+25se497721 0.3 1017356
08:00+27se47666 0.4 1018942
11:00+30sse665239 0.2 10181720
14:00+33sse65443 0.3 10172223
17:00+31se65440 0.0 10161680
20:00+27se46635 0.0 1017294
11 may, tue
tue1123:00+26e24735 0.0 101892
02:00+25e227833 0.0 101829
05:00+25ese237813 0.1 101747
08:00+27se35735 0.4 1018483
11:00+31se435044 0.4 10181765
14:00+32e534545 0.4 10181841
17:00+32ese644743 0.0 10161336
20:00+28ese3563100 0.0 1017277